,,PA_Meas_PMT16A,,PR_Meas_QMR101_102,,RH_Meas_QMH101,,SR_Meas_QMS101,,TA_Meas_QMH101,,GenWind,,GenWind,
time,status,PA,status,PR,status,RH,status,SR,status,TA,status,DirAvg,status,SpdAvg,
2012-10-04, 00:00:04,VALID,918.836,VALID,0,VALID,97.3205,VALID,0,VALID,19.1193,VALID,229,VALID,0,
2012-10-04, 00:01:04,VALID,918.862,VALID,0,VALID,97.2977,VALID,0,VALID,19.1207,VALID,240,VALID,0,
2012-10-04, 00:02:04,VALID,918.822,VALID,0,VALID,97.3281,VALID,0,VALID,19.1207,VALID,207,VALID,0,
2012-10-04, 00:03:04,VALID,918.818,VALID,0,VALID,97.3434,VALID,0,VALID,19.1012,VALID,215,VALID,0,
2012-10-04, 00:04:04,VALID,918.834,VALID,0,VALID,97.3358,VALID,0,VALID,19.0998,VALID,231,VALID,0,
2012-10-04, 00:05:04,VALID,918.824,VALID,0,VALID,97.3281,VALID,0,VALID,19.1207,VALID,216,VALID,0,
2012-10-04, 00:06:04,VALID,918.811,VALID,0,VALID,97.3434,VALID,0,VALID,19.1597,VALID,219,VALID,0,
2012-10-04, 00:07:04,VALID,918.772,VALID,0,VALID,97.351,VALID,0,VALID,19.1388,VALID,194,VALID,0,
2012-10-04, 00:08:04,VALID,918.791,VALID,0,VALID,97.3586,VALID,0,VALID,19.1792,VALID,219,VALID,0,
2012-10-04, 00:09:04,VALID,918.758,VALID,0,VALID,97.3586,VALID,0,VALID,19.1597,VALID,219,VALID,0,
2012-10-04, 00:10:04,VALID,918.76,VALID,0,VALID,97.3434,VALID,0,VALID,19.1388,VALID,219,VALID,0,
2012-10-04, 00:11:04,VALID,918.73,VALID,0,VALID,97.3586,VALID,0,VALID,19.1597,VALID,219,VALID,0,
2012-10-04, 00:12:04,VALID,918.709,VALID,0,VALID,97.3586,VALID,0,VALID,19.1792,VALID,219,VALID,0,
2012-10-04, 00:13:04,VALID,918.658,VALID,0,VALID,97.3586,VALID,0,VALID,19.1792,VALID,219,VALID,0,
2012-10-04, 00:14:04,VALID,918.643,VALID,0,VALID,97.3663,VALID,0,VALID,19.1792,VALID,219,VALID,0,
2012-10-04, 00:15:04,VALID,918.601,VALID,0,VALID,97.3891,VALID,0,VALID,19.1388,VALID,219,VALID,0,
2012-10-04, 00:16:04,VALID,918.601,VALID,0,VALID,97.351,VALID,0,VALID,19.1597,VALID,219,VALID,0,
2012-10-04, 00:17:04,VALID,918.563,VALID,0,VALID,97.3586,VALID,0,VALID,19.1597,VALID,218,VALID,0,
2012-10-04, 00:18:04,VALID,918.483,VALID,0,VALID,97.3663,VALID,0,VALID,19.1597,VALID,218,VALID,0,
2012-10-04, 00:19:04,VALID,918.467,VALID,0,VALID,97.3663,VALID,0,VALID,19.1402,VALID,218,VALID,0,
2012-10-04, 00:20:04,VALID,918.437,VALID,0,VALID,97.351,VALID,0,VALID,19.0998,VALID,60,VALID,0,
2012-10-04, 00:21:04,VALID,918.425,VALID,0,VALID,97.3586,VALID,0,VALID,19.0622,VALID,34,VALID,0,
2012-10-04, 00:22:04,VALID,918.406,VALID,0,VALID,97.3663,VALID,0,VALID,19.0427,VALID,32,VALID,0,
2012-10-04, 00:23:04,VALID,918.416,VALID,0,VALID,97.3663,VALID,0,VALID,19.0427,VALID,40,VALID,0,
2012-10-04, 00:24:04,VALID,918.434,VALID,0,VALID,97.3815,VALID,0,VALID,19.0232,VALID,40,VALID,0,
2012-10-04, 00:25:04,VALID,918.441,VALID,0,VALID,97.3815,VALID,0,VALID,19.0232,VALID,39,VALID,0,
2012-10-04, 00:26:04,VALID,918.427,VALID,0,VALID,97.3968,VALID,0,VALID,19.0023,VALID,39,VALID,0,
2012-10-04, 00:27:04,VALID,918.427,VALID,0,VALID,97.3891,VALID,0,VALID,19.0427,VALID,21,VALID,0,
2012-10-04, 00:28:04,VALID,918.423,VALID,0,VALID,97.3968,VALID,0,VALID,18.9828,VALID,11,VALID,0,
2012-10-04, 00:29:04,VALID,918.389,VALID,0,VALID,97.4196,VALID,0,VALID,19.0218,VALID,11,VALID,0,
2012-10-04, 00:30:04,VALID,918.374,VALID,0,VALID,97.412,VALID,0,VALID,19.0218,VALID,11,VALID,0,
2012-10-04, 00:31:04,VALID,918.316,VALID,0,VALID,97.412,VALID,0,VALID,19.1012,VALID,11,VALID,0,
2012-10-04, 00:32:04,VALID,918.297,VALID,0,VALID,97.3968,VALID,0,VALID,19.0817,VALID,11,VALID,0,
2012-10-04, 00:33:04,VALID,918.27,VALID,0,VALID,97.3968,VALID,0,VALID,19.0413,VALID,11,VALID,0,
2012-10-04, 00:34:04,VALID,918.263,VALID,0,VALID,97.4044,VALID,0,VALID,19.0622,VALID,11,VALID,0,
2012-10-04, 00:35:04,VALID,918.26,VALID,0,VALID,97.4273,VALID,0,VALID,19.0427,VALID,11,VALID,0,
2012-10-04, 00:36:04,VALID,918.214,VALID,0,VALID,97.4501,VALID,0,VALID,19.0218,VALID,59,VALID,0,
2012-10-04, 00:37:04,VALID,918.219,VALID,0,VALID,97.4273,VALID,0,VALID,19.0427,VALID,59,VALID,0,
2012-10-04, 00:38:04,VALID,918.236,VALID,0,VALID,97.4196,VALID,0,VALID,19.0218,VALID,59,VALID,0,
2012-10-04, 00:39:04,VALID,918.195,VALID,0,VALID,97.4501,VALID,0,VALID,19.0218,VALID,59,VALID,0,
2012-10-04, 00:40:04,VALID,918.162,VALID,0,VALID,97.4425,VALID,0.107441,VALID,19.0427,VALID,59,VALID,0,
2012-10-04, 00:41:04,VALID,918.117,VALID,0,VALID,97.4273,VALID,0,VALID,19.0622,VALID,59,VALID,0,
2012-10-04, 00:42:04,VALID,918.105,VALID,0,VALID,97.4425,VALID,0,VALID,19.0427,VALID,59,VALID,0,
2012-10-04, 00:43:04,VALID,918.092,VALID,0,VALID,97.4425,VALID,0,VALID,19.0232,VALID,59,VALID,0,
2012-10-04, 00:44:04,VALID,918.079,VALID,0,VALID,97.4349,VALID,0,VALID,19.0427,VALID,59,VALID,0,
2012-10-04, 00:45:04,VALID,918.065,VALID,0,VALID,97.4501,VALID,0,VALID,19.0232,VALID,59,VALID,0,
2012-10-04, 00:46:04,VALID,918.04,VALID,0,VALID,97.473,VALID,0,VALID,19.0232,VALID,59,VALID,0,
2012-10-04, 00:47:04,VALID,918.053,VALID,0,VALID,97.4501,VALID,0,VALID,19.0232,VALID,59,VALID,0,
2012-10-04, 00:48:04,VALID,918.079,VALID,0,VALID,97.473,VALID,0,VALID,19.0232,VALID,59,VALID,0,
2012-10-04, 00:49:04,VALID,918.068,VALID,0,VALID,97.4501,VALID,0,VALID,19.0232,VALID,59,VALID,0,
2012-10-04, 00:50:04,VALID,918.055,VALID,0,VALID,97.4654,VALID,0,VALID,19.0023,VALID,59,VALID,0,
2012-10-04, 00:51:04,VALID,918.08,VALID,0,VALID,97.4654,VALID,0,VALID,19.0218,VALID,59,VALID,0,
2012-10-04, 00:52:04,VALID,918.066,VALID,0,VALID,97.4806,VALID,0,VALID,19.0622,VALID,59,VALID,0,
2012-10-04, 00:53:04,VALID,918.064,VALID,0,VALID,97.5035,VALID,0,VALID,19.0622,VALID,59,VALID,0,
2012-10-04, 00:54:04,VALID,918.059,VALID,0,VALID,97.4806,VALID,0,VALID,19.0817,VALID,59,VALID,0,
2012-10-04, 00:55:04,VALID,918.023,VALID,0,VALID,97.4882,VALID,0,VALID,19.1012,VALID,59,VALID,0,
2012-10-04, 00:56:04,VALID,918.003,VALID,0,VALID,97.4882,VALID,0,VALID,19.1402,VALID,59,VALID,0,
2012-10-04, 00:57:04,VALID,917.963,VALID,0,VALID,97.4806,VALID,0,VALID,19.0998,VALID,59,VALID,0,
2012-10-04, 00:58:04,VALID,917.936,VALID,0,VALID,97.5035,VALID,0,VALID,19.1012,VALID,59,VALID,0,
2012-10-04, 00:59:04,VALID,917.891,VALID,0,VALID,97.4654,VALID,0,VALID,19.1207,VALID,59,VALID,0,
2012-10-04, 01:00:04,VALID,917.837,VALID,0,VALID,97.4959,VALID,0,VALID,19.0817,VALID,44,VALID,0,
2012-10-04, 01:01:04,VALID,917.821,VALID,0,VALID,97.4882,VALID,0,VALID,19.1012,VALID,44,VALID,0,
2012-10-04, 01:02:04,VALID,917.827,VALID,0,VALID,97.5035,VALID,0,VALID,19.1012,VALID,14,VALID,0,
2012-10-04, 01:03:04,VALID,917.802,VALID,0,VALID,97.4806,VALID,0,VALID,19.0817,VALID,9,VALID,0,
2012-10-04, 01:04:04,VALID,917.76,VALID,0,VALID,97.5035,VALID,0,VALID,19.1207,VALID,353,VALID,0,
2012-10-04, 01:05:04,VALID,917.722,VALID,0,VALID,97.4959,VALID,0,VALID,19.1402,VALID,354,VALID,0,
2012-10-04, 01:06:04,VALID,917.731,VALID,0,VALID,97.4959,VALID,0,VALID,19.1402,VALID,360,VALID,0,
2012-10-04, 01:07:04,VALID,917.684,VALID,0,VALID,97.4882,VALID,0,VALID,19.1597,VALID,1,VALID,0,
2012-10-04, 01:08:04,VALID,917.621,VALID,0,VALID,97.5111,VALID,0,VALID,19.1597,VALID,20,VALID,0,
2012-10-04, 01:09:04,VALID,917.627,VALID,0,VALID,97.4959,VALID,0,VALID,19.1402,VALID,3,VALID,0,
2012-10-04, 01:10:04,VALID,917.596,VALID,0,VALID,97.5035,VALID,0,VALID,19.1207,VALID,26,VALID,0,
2012-10-04, 01:11:04,VALID,917.532,VALID,0,VALID,97.5035,VALID,0,VALID,19.1402,VALID,33,VALID,0,
2012-10-04, 01:12:04,VALID,917.535,VALID,0,VALID,97.4959,VALID,0,VALID,19.1207,VALID,355,VALID,0,
2012-10-04, 01:13:04,VALID,917.547,VALID,0,VALID,97.5035,VALID,0,VALID,19.0817,VALID,4,VALID,0,
2012-10-04, 01:14:04,VALID,917.519,VALID,0,VALID,97.4959,VALID,0,VALID,19.1012,VALID,24,VALID,0,
2012-10-04, 01:15:04,VALID,917.533,VALID,0,VALID,97.4882,VALID,0,VALID,19.1207,VALID,27,VALID,0,
2012-10-04, 01:16:04,VALID,917.519,VALID,0,VALID,97.5111,VALID,0,VALID,19.1012,VALID,353,VALID,0,
2012-10-04, 01:17:04,VALID,917.508,VALID,0,VALID,97.5187,VALID,0,VALID,19.0817,VALID,23,VALID,0,
2012-10-04, 01:18:04,VALID,917.484,VALID,0,VALID,97.4959,VALID,0,VALID,19.1012,VALID,2,VALID,0,
2012-10-04, 01:19:04,VALID,917.475,VALID,0,VALID,97.5187,VALID,0,VALID,19.0622,VALID,15,VALID,0,
2012-10-04, 01:20:04,VALID,917.489,VALID,0,VALID,97.4959,VALID,0,VALID,19.0427,VALID,8,VALID,0,
2012-10-04, 01:21:04,VALID,917.478,VALID,0,VALID,97.5111,VALID,0,VALID,19.0037,VALID,12,VALID,0,
2012-10-04, 01:22:04,VALID,917.46,VALID,0,VALID,97.5264,VALID,0,VALID,19.0037,VALID,6,VALID,0,
2012-10-04, 01:23:04,VALID,917.433,VALID,0,VALID,97.534,VALID,0,VALID,18.9647,VALID,9,VALID,0,
2012-10-04, 01:24:04,VALID,917.454,VALID,0,VALID,97.534,VALID,0,VALID,18.9452,VALID,15,VALID,0,
2012-10-04, 01:25:04,VALID,917.439,VALID,0,VALID,97.5187,VALID,0,VALID,18.9647,VALID,17,VALID,0,
2012-10-04, 01:26:04,VALID,917.349,VALID,0,VALID,97.5492,VALID,0,VALID,18.9452,VALID,29,VALID,0,
2012-10-04, 01:27:04,VALID,917.324,VALID,0,VALID,97.5416,VALID,0,VALID,18.9062,VALID,18,VALID,0,
2012-10-04, 01:28:04,VALID,917.306,VALID,0,VALID,97.5264,VALID,0,VALID,18.8672,VALID,12,VALID,0,
2012-10-04, 01:29:04,VALID,917.294,VALID,0,VALID,97.5111,VALID,0,VALID,18.8477,VALID,10,VALID,0,
2012-10-04, 01:30:04,VALID,917.206,VALID,0,VALID,97.5187,VALID,0,VALID,18.8282,VALID,11,VALID,0,
2012-10-04, 01:31:04,VALID,917.21,VALID,0,VALID,97.5569,VALID,0,VALID,18.8087,VALID,13,VALID,0,
2012-10-04, 01:32:04,VALID,917.209,VALID,0,VALID,97.534,VALID,0,VALID,18.8073,VALID,16,VALID,0,
2012-10-04, 01:33:04,VALID,917.17,VALID,0,VALID,97.5492,VALID,0,VALID,18.8087,VALID,11,VALID,0,
2012-10-04, 01:34:04,VALID,917.178,VALID,0,VALID,97.5416,VALID,0,VALID,18.8087,VALID,11,VALID,0,
2012-10-04, 01:35:04,VALID,917.174,VALID,0,VALID,97.5492,VALID,0,VALID,18.8102,VALID,11,VALID,0,
2012-10-04, 01:36:04,VALID,917.148,VALID,0,VALID,97.5645,VALID,0,VALID,18.7892,VALID,11,VALID,0,
2012-10-04, 01:37:04,VALID,917.16,VALID,0,VALID,97.5569,VALID,0,VALID,18.8087,VALID,11,VALID,0,
2012-10-04, 01:38:04,VALID,917.131,VALID,0,VALID,97.5569,VALID,0,VALID,18.7892,VALID,11,VALID,0,
2012-10-04, 01:39:04,VALID,917.133,VALID,0,VALID,97.5569,VALID,0,VALID,18.8087,VALID,11,VALID,0,
2012-10-04, 01:40:04,VALID,917.114,VALID,0,VALID,97.5721,VALID,0,VALID,18.8087,VALID,11,VALID,0,
2012-10-04, 01:41:04,VALID,917.114,VALID,0,VALID,97.595,VALID,0,VALID,18.8087,VALID,11,VALID,0,
2012-10-04, 01:42:04,VALID,917.081,VALID,0,VALID,97.5797,VALID,0,VALID,18.8477,VALID,11,VALID,0,
2012-10-04, 01:43:04,VALID,917.028,VALID,0,VALID,97.5721,VALID,0,VALID,18.8477,VALID,11,VALID,0,
2012-10-04, 01:44:04,VALID,917.018,VALID,0,VALID,97.5721,VALID,0,VALID,18.8672,VALID,11,VALID,0,
2012-10-04, 01:45:04,VALID,916.987,VALID,0,VALID,97.5721,VALID,0,VALID,18.8477,VALID,11,VALID,0,
2012-10-04, 01:46:04,VALID,916.991,VALID,0,VALID,97.5721,VALID,0,VALID,18.8672,VALID,11,VALID,0,
2012-10-04, 01:47:04,VALID,916.964,VALID,0,VALID,97.5797,VALID,0,VALID,18.8477,VALID,11,VALID,0,
2012-10-04, 01:48:04,VALID,916.963,VALID,0,VALID,97.5873,VALID,0,VALID,18.8672,VALID,11,VALID,0,
2012-10-04, 01:49:04,VALID,916.933,VALID,0,VALID,97.5797,VALID,0,VALID,18.8087,VALID,11,VALID,0,
2012-10-04, 01:50:04,VALID,916.937,VALID,0,VALID,97.5721,VALID,0,VALID,18.7308,VALID,11,VALID,0,
2012-10-04, 01:51:04,VALID,916.944,VALID,0,VALID,97.5645,VALID,0,VALID,18.6918,VALID,11,VALID,0,
2012-10-04, 01:52:04,VALID,916.941,VALID,0,VALID,97.5797,VALID,0,VALID,18.6528,VALID,11,VALID,0,
2012-10-04, 01:53:04,VALID,916.946,VALID,0,VALID,97.5797,VALID,0,VALID,18.6333,VALID,11,VALID,0,
2012-10-04, 01:54:04,VALID,916.93,VALID,0,VALID,97.595,VALID,0,VALID,18.6152,VALID,11,VALID,0,
2012-10-04, 01:55:04,VALID,916.918,VALID,0,VALID,97.595,VALID,0,VALID,18.5553,VALID,11,VALID,0,
2012-10-04, 01:56:04,VALID,916.913,VALID,0,VALID,97.595,VALID,0,VALID,18.5553,VALID,11,VALID,0,
2012-10-04, 01:57:04,VALID,916.91,VALID,0,VALID,97.6102,VALID,0,VALID,18.5567,VALID,11,VALID,0,
2012-10-04, 01:58:04,VALID,916.853,VALID,0,VALID,97.6026,VALID,0,VALID,18.5748,VALID,11,VALID,0,
2012-10-04, 01:59:04,VALID,916.85,VALID,0,VALID,97.6178,VALID,0,VALID,18.5748,VALID,11,VALID,0,
2012-10-04, 02:00:04,VALID,916.795,VALID,0,VALID,97.6102,VALID,0,VALID,18.5943,VALID,11,VALID,0,
2012-10-04, 02:01:04,VALID,916.784,VALID,0,VALID,97.6102,VALID,0,VALID,18.5943,VALID,11,VALID,0,
2012-10-04, 02:02:04,VALID,916.75,VALID,0,VALID,97.595,VALID,0,VALID,18.5943,VALID,11,VALID,0,
2012-10-04, 02:03:04,VALID,916.734,VALID,0,VALID,97.6407,VALID,0,VALID,18.5943,VALID,11,VALID,0,
2012-10-04, 02:04:04,VALID,916.714,VALID,0,VALID,97.6331,VALID,0,VALID,18.5553,VALID,11,VALID,0,
2012-10-04, 02:05:04,VALID,916.709,VALID,0,VALID,97.6178,VALID,0,VALID,18.5358,VALID,10,VALID,0,
2012-10-04, 02:06:05,VALID,916.683,VALID,0,VALID,97.6102,VALID,0,VALID,18.5358,VALID,10,VALID,0,
2012-10-04, 02:07:05,VALID,916.686,VALID,0,VALID,97.6331,VALID,0,VALID,18.5358,VALID,10,VALID,0,
2012-10-04, 02:08:05,VALID,916.686,VALID,0,VALID,97.6331,VALID,0,VALID,18.5553,VALID,10,VALID,0,
2012-10-04, 02:09:05,VALID,916.736,VALID,0,VALID,97.6331,VALID,0,VALID,18.5748,VALID,10,VALID,0,
2012-10-04, 02:10:05,VALID,916.776,VALID,0,VALID,97.6407,VALID,0,VALID,18.6138,VALID,10,VALID,0,
2012-10-04, 02:11:05,VALID,916.778,VALID,0,VALID,97.6331,VALID,0,VALID,18.6333,VALID,10,VALID,0,
2012-10-04, 02:12:05,VALID,916.821,VALID,0,VALID,97.6407,VALID,0,VALID,18.6333,VALID,10,VALID,0,
2012-10-04, 02:13:05,VALID,916.833,VALID,0,VALID,97.6483,VALID,0,VALID,18.6528,VALID,10,VALID,0,
2012-10-04, 02:14:05,VALID,916.876,VALID,0,VALID,97.656,VALID,0,VALID,18.6723,VALID,10,VALID,0,
2012-10-04, 02:15:05,VALID,916.849,VALID,0,VALID,97.6636,VALID,0,VALID,18.6723,VALID,10,VALID,0,
2012-10-04, 02:16:05,VALID,916.883,VALID,0,VALID,97.6331,VALID,0,VALID,18.6528,VALID,10,VALID,0,
2012-10-04, 02:17:05,VALID,916.899,VALID,0,VALID,97.6331,VALID,0,VALID,18.6723,VALID,10,VALID,0,
2012-10-04, 02:18:05,VALID,916.897,VALID,0,VALID,97.6255,VALID,0,VALID,18.6723,VALID,10,VALID,0,
2012-10-04, 02:19:05,VALID,916.906,VALID,0,VALID,97.6483,VALID,0,VALID,18.6723,VALID,10,VALID,0,
2012-10-04, 02:20:05,VALID,916.904,VALID,0,VALID,97.656,VALID,0,VALID,18.6723,VALID,10,VALID,0,
2012-10-04, 02:21:05,VALID,916.893,VALID,0,VALID,97.6712,VALID,0,VALID,18.6918,VALID,10,VALID,0,
2012-10-04, 02:22:05,VALID,916.896,VALID,0,VALID,97.656,VALID,0,VALID,18.6932,VALID,10,VALID,0,
2012-10-04, 02:23:05,VALID,916.855,VALID,0,VALID,97.6483,VALID,0,VALID,18.6528,VALID,10,VALID,0,
2012-10-04, 02:24:05,VALID,916.886,VALID,0,VALID,97.656,VALID,0,VALID,18.6138,VALID,10,VALID,0,
2012-10-04, 02:25:05,VALID,916.876,VALID,0,VALID,97.6636,VALID,0,VALID,18.6347,VALID,10,VALID,0,
2012-10-04, 02:26:05,VALID,916.863,VALID,0,VALID,97.656,VALID,0,VALID,18.6333,VALID,10,VALID,0,
2012-10-04, 02:27:05,VALID,916.938,VALID,0,VALID,97.6636,VALID,0,VALID,18.6333,VALID,10,VALID,0,
2012-10-04, 02:28:05,VALID,916.952,VALID,0,VALID,97.6483,VALID,0,VALID,18.6723,VALID,10,VALID,0,
2012-10-04, 02:29:05,VALID,916.972,VALID,0,VALID,97.656,VALID,0,VALID,18.6723,VALID,10,VALID,0,
2012-10-04, 02:30:05,VALID,917.002,VALID,0,VALID,97.6712,VALID,0,VALID,18.6723,VALID,52,VALID,0,
2012-10-04, 02:31:05,VALID,917.034,VALID,0,VALID,97.6712,VALID,0,VALID,18.6333,VALID,52,VALID,0,
2012-10-04, 02:32:05,VALID,917.061,VALID,0,VALID,97.656,VALID,0,VALID,18.5914,VALID,52,VALID,0,
2012-10-04, 02:33:05,VALID,917.083,VALID,0,VALID,97.6712,VALID,0,VALID,18.6138,VALID,52,VALID,0,
2012-10-04, 02:34:05,VALID,917.042,VALID,0,VALID,97.6636,VALID,0.107441,VALID,18.6528,VALID,52,VALID,0,
2012-10-04, 02:35:05,VALID,917.061,VALID,0,VALID,97.6636,VALID,0,VALID,18.6723,VALID,52,VALID,0,
2012-10-04, 02:36:05,VALID,917.021,VALID,0,VALID,97.6712,VALID,0,VALID,18.6932,VALID,52,VALID,0,
2012-10-04, 02:37:05,VALID,917.025,VALID,0,VALID,97.6407,VALID,0,VALID,18.6918,VALID,52,VALID,0,
2012-10-04, 02:38:05,VALID,917.065,VALID,0,VALID,97.6636,VALID,0,VALID,18.7113,VALID,52,VALID,0,
2012-10-04, 02:39:05,VALID,917.045,VALID,0,VALID,97.656,VALID,0,VALID,18.7098,VALID,52,VALID,0,
2012-10-04, 02:40:05,VALID,917.011,VALID,0,VALID,97.6483,VALID,0,VALID,18.7503,VALID,52,VALID,0,
2012-10-04, 02:41:05,VALID,917.049,VALID,0,VALID,97.6712,VALID,0,VALID,18.7907,VALID,52,VALID,0,
2012-10-04, 02:42:05,VALID,917.074,VALID,0,VALID,97.656,VALID,0,VALID,18.7697,VALID,52,VALID,0,
2012-10-04, 02:43:05,VALID,917.083,VALID,0,VALID,97.6636,VALID,0,VALID,18.7892,VALID,52,VALID,0,
2012-10-04, 02:44:05,VALID,917.099,VALID,0,VALID,97.6788,VALID,0,VALID,18.8087,VALID,52,VALID,0,
2012-10-04, 02:45:05,VALID,917.136,VALID,0,VALID,97.6712,VALID,0,VALID,18.8087,VALID,52,VALID,0,
2012-10-04, 02:46:05,VALID,917.178,VALID,0,VALID,97.6712,VALID,0,VALID,18.8477,VALID,52,VALID,0,
2012-10-04, 02:47:05,VALID,917.221,VALID,0,VALID,97.6483,VALID,0,VALID,18.8477,VALID,52,VALID,0,
2012-10-04, 02:48:05,VALID,917.206,VALID,0,VALID,97.6712,VALID,0,VALID,18.8477,VALID,52,VALID,0,
2012-10-04, 02:49:05,VALID,917.206,VALID,0,VALID,97.6483,VALID,0,VALID,18.8672,VALID,52,VALID,0,
2012-10-04, 02:50:05,VALID,917.218,VALID,0,VALID,97.656,VALID,0,VALID,18.8867,VALID,52,VALID,0,
2012-10-04, 02:51:05,VALID,917.203,VALID,0,VALID,97.6712,VALID,0,VALID,18.8882,VALID,52,VALID,0,
2012-10-04, 02:52:05,VALID,917.205,VALID,0,VALID,97.6941,VALID,0,VALID,18.8463,VALID,52,VALID,0,
2012-10-04, 02:53:05,VALID,917.209,VALID,0,VALID,97.6636,VALID,0,VALID,18.8672,VALID,52,VALID,0,
2012-10-04, 02:54:05,VALID,917.202,VALID,0,VALID,97.6788,VALID,0,VALID,18.8477,VALID,52,VALID,0,
2012-10-04, 02:55:05,VALID,917.188,VALID,0,VALID,97.6865,VALID,0,VALID,18.8282,VALID,52,VALID,0,
2012-10-04, 02:56:05,VALID,917.183,VALID,0,VALID,97.6788,VALID,0,VALID,18.8087,VALID,52,VALID,0,
2012-10-04, 02:57:05,VALID,917.196,VALID,0,VALID,97.6865,VALID,0,VALID,18.8087,VALID,52,VALID,0,
2012-10-04, 02:58:05,VALID,917.197,VALID,0,VALID,97.6636,VALID,0,VALID,18.7892,VALID,52,VALID,0,
2012-10-04, 02:59:05,VALID,917.19,VALID,0,VALID,97.6712,VALID,0,VALID,18.7697,VALID,52,VALID,0,
2012-10-04, 03:00:05,VALID,917.195,VALID,0,VALID,97.6788,VALID,0,VALID,18.7697,VALID,52,VALID,0,
2012-10-04, 03:01:05,VALID,917.223,VALID,0,VALID,97.6712,VALID,0,VALID,18.7892,VALID,52,VALID,0,
2012-10-04, 03:02:05,VALID,917.199,VALID,0,VALID,97.6712,VALID,0,VALID,18.7892,VALID,52,VALID,0,
2012-10-04, 03:03:05,VALID,917.188,VALID,0,VALID,97.6788,VALID,0,VALID,18.7697,VALID,52,VALID,0,
2012-10-04, 03:04:05,VALID,917.188,VALID,0,VALID,97.6788,VALID,0,VALID,18.7892,VALID,52,VALID,0,
2012-10-04, 03:05:05,VALID,917.17,VALID,0,VALID,97.6865,VALID,0,VALID,18.7892,VALID,52,VALID,0,
2012-10-04, 03:06:05,VALID,917.182,VALID,0,VALID,97.6865,VALID,0,VALID,18.7892,VALID,52,VALID,0,
2012-10-04, 03:07:05,VALID,917.176,VALID,0,VALID,97.7017,VALID,0,VALID,18.7892,VALID,52,VALID,0,
2012-10-04, 03:08:05,VALID,917.169,VALID,0,VALID,97.6788,VALID,0,VALID,18.8087,VALID,52,VALID,0,
2012-10-04, 03:09:05,VALID,917.195,VALID,0,VALID,97.6788,VALID,0,VALID,18.8477,VALID,52,VALID,0,
2012-10-04, 03:10:05,VALID,917.182,VALID,0,VALID,97.6941,VALID,0,VALID,18.8282,VALID,52,VALID,0,
2012-10-04, 03:11:05,VALID,917.183,VALID,0,VALID,97.6788,VALID,0,VALID,18.8492,VALID,52,VALID,0,
2012-10-04, 03:12:05,VALID,917.188,VALID,0,VALID,97.6712,VALID,0,VALID,18.8477,VALID,52,VALID,0,
2012-10-04, 03:13:05,VALID,917.214,VALID,0,VALID,97.6788,VALID,0,VALID,18.8672,VALID,52,VALID,0,
2012-10-04, 03:14:05,VALID,917.221,VALID,0,VALID,97.6712,VALID,0,VALID,18.8672,VALID,52,VALID,0,
2012-10-04, 03:15:05,VALID,917.218,VALID,0,VALID,97.6865,VALID,0,VALID,18.8268,VALID,52,VALID,0,
2012-10-04, 03:16:05,VALID,917.259,VALID,0,VALID,97.6712,VALID,0,VALID,18.8867,VALID,52,VALID,0,
2012-10-04, 03:17:05,VALID,917.286,VALID,0,VALID,97.7017,VALID,0,VALID,18.8672,VALID,52,VALID,0,
2012-10-04, 03:18:05,VALID,917.292,VALID,0,VALID,97.6712,VALID,0,VALID,18.8867,VALID,52,VALID,0,
2012-10-04, 03:19:05,VALID,917.302,VALID,0,VALID,97.6941,VALID,0,VALID,18.8268,VALID,52,VALID,0,
2012-10-04, 03:20:05,VALID,917.299,VALID,0,VALID,97.6865,VALID,0,VALID,18.8073,VALID,52,VALID,0,
2012-10-04, 03:21:05,VALID,917.333,VALID,0,VALID,97.6941,VALID,0,VALID,18.8073,VALID,52,VALID,0,
2012-10-04, 03:22:05,VALID,917.346,VALID,0,VALID,97.6865,VALID,0,VALID,18.8687,VALID,52,VALID,0,
2012-10-04, 03:23:05,VALID,917.373,VALID,0,VALID,97.6941,VALID,0.107441,VALID,18.8463,VALID,52,VALID,0,
2012-10-04, 03:24:05,VALID,917.379,VALID,0,VALID,97.7017,VALID,0,VALID,18.8268,VALID,52,VALID,0,
2012-10-04, 03:25:05,VALID,917.382,VALID,0,VALID,97.6941,VALID,0,VALID,18.8282,VALID,52,VALID,0,
2012-10-04, 03:26:05,VALID,917.393,VALID,0,VALID,97.6865,VALID,0,VALID,18.8282,VALID,52,VALID,0,
2012-10-04, 03:27:05,VALID,917.387,VALID,0,VALID,97.6865,VALID,0,VALID,18.8282,VALID,52,VALID,0,
2012-10-04, 03:28:05,VALID,917.39,VALID,0,VALID,97.7017,VALID,0,VALID,18.8282,VALID,52,VALID,0,
2012-10-04, 03:29:05,VALID,917.398,VALID,0,VALID,97.7169,VALID,0,VALID,18.8477,VALID,52,VALID,0,
2012-10-04, 03:30:05,VALID,917.372,VALID,0,VALID,97.6788,VALID,0,VALID,18.8477,VALID,43,VALID,0,
2012-10-04, 03:31:05,VALID,917.4,VALID,0,VALID,97.6788,VALID,0,VALID,18.8672,VALID,18,VALID,0,
2012-10-04, 03:32:05,VALID,917.405,VALID,0,VALID,97.7017,VALID,0,VALID,18.8867,VALID,18,VALID,0,
2012-10-04, 03:33:05,VALID,917.429,VALID,0,VALID,97.6941,VALID,0,VALID,18.9257,VALID,18,VALID,0,
2012-10-04, 03:34:05,VALID,917.454,VALID,0,VALID,97.6865,VALID,0,VALID,18.9257,VALID,18,VALID,0,
2012-10-04, 03:35:05,VALID,917.467,VALID,0,VALID,97.6941,VALID,0,VALID,18.9062,VALID,18,VALID,0,
2012-10-04, 03:36:05,VALID,917.495,VALID,0,VALID,97.6941,VALID,0,VALID,18.9257,VALID,18,VALID,0,
2012-10-04, 03:37:05,VALID,917.517,VALID,0,VALID,97.7169,VALID,0,VALID,18.9257,VALID,18,VALID,0,
2012-10-04, 03:38:05,VALID,917.523,VALID,0,VALID,97.7093,VALID,0,VALID,18.9452,VALID,18,VALID,0,
2012-10-04, 03:39:05,VALID,917.516,VALID,0,VALID,97.7017,VALID,0,VALID,18.9062,VALID,18,VALID,0,
2012-10-04, 03:40:05,VALID,917.508,VALID,0,VALID,97.7093,VALID,0,VALID,18.9062,VALID,18,VALID,0,
2012-10-04, 03:41:05,VALID,917.505,VALID,0,VALID,97.7017,VALID,0,VALID,18.8867,VALID,18,VALID,0,
2012-10-04, 03:42:05,VALID,917.499,VALID,0,VALID,97.7093,VALID,0,VALID,18.8867,VALID,18,VALID,0,
2012-10-04, 03:43:05,VALID,917.496,VALID,0,VALID,97.7017,VALID,0,VALID,18.9062,VALID,19,VALID,0,
2012-10-04, 03:44:05,VALID,917.534,VALID,0,VALID,97.6865,VALID,0,VALID,18.9452,VALID,19,VALID,0,
2012-10-04, 03:45:05,VALID,917.528,VALID,0,VALID,97.6712,VALID,0,VALID,18.9257,VALID,18,VALID,0,
2012-10-04, 03:46:05,VALID,917.558,VALID,0,VALID,97.7169,VALID,0,VALID,18.9048,VALID,19,VALID,0,
2012-10-04, 03:47:05,VALID,917.563,VALID,0,VALID,97.6941,VALID,0,VALID,18.9062,VALID,19,VALID,0,
2012-10-04, 03:48:05,VALID,917.558,VALID,0,VALID,97.6788,VALID,0,VALID,18.9257,VALID,21,VALID,0,
2012-10-04, 03:49:05,VALID,917.588,VALID,0,VALID,97.6941,VALID,0,VALID,18.9062,VALID,28,VALID,0,
2012-10-04, 03:50:05,VALID,917.598,VALID,0,VALID,97.6788,VALID,0,VALID,18.9257,VALID,18,VALID,0,
2012-10-04, 03:51:05,VALID,917.558,VALID,0,VALID,97.6941,VALID,0.107441,VALID,18.9257,VALID,39,VALID,0,
2012-10-04, 03:52:05,VALID,917.54,VALID,0,VALID,97.7017,VALID,0,VALID,18.9452,VALID,40,VALID,0,
2012-10-04, 03:53:05,VALID,917.538,VALID,0,VALID,97.7017,VALID,0,VALID,18.9452,VALID,36,VALID,0,
2012-10-04, 03:54:05,VALID,917.52,VALID,0,VALID,97.6941,VALID,0,VALID,18.9647,VALID,36,VALID,0,
2012-10-04, 03:55:05,VALID,917.51,VALID,0,VALID,97.7093,VALID,0,VALID,18.9647,VALID,36,VALID,0,
2012-10-04, 03:56:05,VALID,917.503,VALID,0,VALID,97.7093,VALID,0,VALID,18.9647,VALID,36,VALID,0,
2012-10-04, 03:57:05,VALID,917.493,VALID,0,VALID,97.6865,VALID,0,VALID,18.9857,VALID,36,VALID,0,
2012-10-04, 03:58:05,VALID,917.473,VALID,0,VALID,97.7017,VALID,0,VALID,18.9857,VALID,36,VALID,0,
2012-10-04, 03:59:05,VALID,917.468,VALID,0,VALID,97.6865,VALID,0,VALID,18.9452,VALID,36,VALID,0,
2012-10-04, 04:00:05,VALID,917.465,VALID,0,VALID,97.6941,VALID,0,VALID,18.9257,VALID,36,VALID,0,
2012-10-04, 04:01:05,VALID,917.445,VALID,0,VALID,97.7093,VALID,0,VALID,18.9257,VALID,36,VALID,0,